Flag for Germany Weather past 2 weeks in Aalen, Baden-Württemberg, Germany

Now
35 °F

Clear.


Feels Like: 35 °F
Forecast: 24 / 44 °F
Wind: 2 mph from South

Location: Stoetten

Current Time: Mar 6, 2015 at 10:56:43 PM

Latest Report: Mar 6, 2015 at 10:00 PM


Visibility: 25 mi

Pressure: 30.64 "Hg

Humidity: 65%

Dew point: 24 °F

Location of AalenLocation

Historic Weather in Aalen — Graph

°F

Aalen temperature yesterday

Maximum temperature yesterday: 35 °F (at 3:00 PM)
Minimum temperature yesterday: 29 °F (at 2:00 AM)
Average temperature yesterday: 31 °F

Past Weeks' High & Low Weather Summary

 TemperatureHumidityPressure
High45 °F (Feb 20, 3:00 PM)100% (Feb 21, 6:00 PM)30.71 "Hg (Feb 21, 6:00 PM)
Low24 °F (Feb 23, 6:00 AM)36% (Feb 21, 1:00 AM)29.54 "Hg (Feb 21, 1:00 PM)
Average33 °F82%30.06 "Hg
* Reported Feb 19 9:00 PM — Mar 6 9:00 PM, Aalen, Weather by CustomWeather, © 2015

Note: Actual official high and low records may vary slightly from our data, if they occured in-between our weather recording intervals... More about our weather records

Advertising

Aalen weather history for previous 24 hours

 ConditionsComfort  
Time TempWeatherWind HumidityBarometerVisibility
9:00 PM
Fri, Mar 6
35 °FPassing clouds.2 mph66%30.63 "Hg43 mi
8:00 PM35 °FPassing clouds.1 mph65%30.63 "Hg47 mi
7:00 PM36 °FPassing clouds.2 mph63%30.60 "Hg47 mi
6:00 PM38 °FSunny.No wind59%30.61 "Hg25 mi
5:00 PM40 °FScattered clouds.2 mph53%30.59 "Hg47 mi
4:00 PM38 °FScattered clouds.1 mph57%30.60 "Hg47 mi
3:00 PM39 °FScattered clouds.1 mph55%30.62 "Hg47 mi
2:00 PM37 °FPartly sunny.1 mph59%30.64 "Hg43 mi
1:00 PM37 °FPartly sunny.1 mph57%30.66 "Hg37 mi
12:00 PM35 °FScattered clouds.2 mph68%30.68 "Hg34 mi
11:00 AM35 °FScattered clouds.2 mph70%30.68 "Hg25 mi
10:00 AM33 °FPartly sunny.2 mph77%30.70 "Hg22 mi
9:00 AM30 °FScattered clouds.3 mph83%30.71 "Hg22 mi
8:00 AM30 °FOvercast.2 mph84%30.70 "Hg22 mi
7:00 AM29 °FOvercast.3 mph85%30.69 "Hg19 mi
6:00 AM30 °FOvercast.1 mph86%30.68 "Hg25 mi
5:00 AM29 °FClear.1 mph86%30.67 "Hg11 mi
4:00 AM29 °FClear.2 mph85%30.68 "Hg14 mi
3:00 AM29 °FPassing clouds.2 mph82%30.68 "Hg16 mi
2:00 AM30 °FPassing clouds.2 mph78%30.67 "Hg22 mi
1:00 AM31 °FOvercast.3 mph76%30.67 "Hg25 mi
12:00 AM32 °FOvercast.2 mph74%30.67 "Hg28 mi
10:00 PM
Thu, Mar 5
32 °FOvercast.2 mph75%30.66 "Hg25 mi
Weather by CustomWeather, © 2015

See weather overviewHow to use our weather pages